SCP
0 0 0 0 0 0 0 0 0 0 0 0 0 0 0 0 0 0 0 0 0 0 0 0 0 0 0 0 0 0 0 0 0 0 0 0 0 0 0 0 0 0 0 0
0 0 0 0 0 0 0 0 0 0 0 0 0 0 0 0 0 0 0 0 0 0 0 0 0 0 0 0 0 0 0 0 0 0 0 0 0 0 0 0 0 0 0 0
0 0 0 0 0 0 0 0 0 0 0 0 0 0 0 0 0 0 0 0 0 0 0 0 0 0 0 0 0 0 0 0 0 0 0 0 0 0 0 0 0 0 0 0
0 0 0 0 0 0 0 0 0 0 0 0 0 0 0 0 0 0 0 0 0 0 0 0 0 0 0 0 0 0 0 0 0 0 0 0 0 0 0 0 0 0 0 0
0 0 0 0 0 0 0 0 0 0 0 0 0 0 0 0 0 0 0 0 0 0 0 0 0 0 0 0 0 0 0 0 0 0 0 0 0 0 0 0 0 0 0 0
0 0 0 0 0 0 0 0 0 0 0 0 0 0 0 0 0 0 0 0 0 0 0 0 0 0 0 0 0 0 0 0 0 0 0 0 0 0 0 0 0 0 0 0
0 0 0 0 0 0 0 0 0 0 0 0 0 0 0 0 0 0 0 0 0 0 0 0 0 0 0 0 0 0 0 0 0 0 0 0 0 0 0 0 0 0 0 0
0 0 0 0 0 0 0 0 0 0 0 0 0 0 0 0 0 0 0 0 0 0 0 0 0 0 0 0 0 0 0 0 0 0 0 0 0 0 0 0 0 0 0 0
0 0 0 0 0 0 0 0 0 0 0 0 0 0 0 0 0 0 0 0 0 0 0 0 0 0 0 0 0 0 0 0 0 0 0 0 0 0 0 0 0 0 0 0
0 0 0 0 0 0 0 0 0 0 0 0 0 0 0 0 0 0 0 0 0 0 0 0 0 0 0 0 0 0 0 0 0 0 0 0 0 0 0 0 0 0 0 0
0 0 0 0 0 0 0 0 0 0 0 0 0 0 0 0 0 0 0 0 0 0 0 0 0 0 0 0 0 0 0 0 0 0 0 0 0 0 0 0 0 0 0 0
0 0 0 0 0 0 0 0 0 0 0 0 0 0 0 0 0 0 0 0 0 0 0 0 0 0 0 0 0 0 0 0 0 0 0 0 0 0 0 0 0 0 0 0
0 0 0 0 0 0 0 0 0 0 0 0 0 0 0 0 0 0 0 0 0 0 0 0 0 0 0 0 0 0 0 0 0 0 0 0 0 0 0 0 0 0 0 0
0 0 0 0 0 0 0 0 0 0 0 0 0 0 0 0 0 0 0 0 0 0 0 0 0 0 0 0 0 0 0 0 0 0 0 0 0 0 0 0 0 0 0 0
0 0 0 0 0 0 0 0 0 0 0 0 0 0 0 0 0 0 0 0 0 0 0 0 0 0 0 0 0 0 0 0 0 0 0 0 0 0 0 0 0 0 0 0
0 0 0 0 0 0 0 0 0 0 0 0 0 0 0 0 0 0 0 0 0 0 0 0 0 0 0 0 0 0 0 0 0 0 0 0 0 0 0 0 0 0 0 0
0 0 0 0 0 0 0 0 0 0 0 0 0 0 0 0 0 0 0 0 0 0 0 0 0 0 0 0 0 0 0 0 0 0 0 0 0 0 0 0 0 0 0 0
0 0 0 0 0 0 0 0 0 0 0 0 0 0 0 0 0 0 0 0 0 0 0 0 0 0 0 0 0 0 0 0 0 0 0 0 0 0 0 0 0 0 0 0
0 0 0 0 0 0 0 0 0 0 0 0 0 0 0 0 0 0 0 0 0 0 0 0 0 0 0 0 0 0 0 0 0 0 0 0 0 0 0 0 0 0 0 0
0 0 0 0 0 0 0 0 0 0 0 0 0 0 0 0 0 0 0 0 0 0 0 0 0 0 0 0 0 0 0 0 0 0 0 0 0 0 0 0 0 0 0 0
0 0 0 0 0 0 0 0 0 0 0 0 0 0 0 0 0 0 0 0 0 0 0 0 0 0 0 0 0 0 0 0 0 0 0 0 0 0 0 0 0 0 0 0
0 0 0 0 0 0 0 0 0 0 0 0 0 0 0 0 0 0 0 0 0 0 0 0 0 0 0 0 0 0 0 0 0 0 0 0 0 0 0 0 0 0 0 0
0 0 0 0 0 0 0 0 0 0 0 0 0 0 0 0 0 0 0 0 0 0 0 0 0 0 0 0 0 0 0 0 0 0 0 0 0 0 0 0 0 0 0 0
0 0 0 0 0 0 0 0 0 0 0 0 0 0 0 0 0 0 0 0 0 0 0 0 0 0 0 0 0 0 0 0 0 0 0 0 0 0 0 0 0 0 0 0
0 0 0 0 0 0 0 0 0 0 0 0 0 0 0 0 0 0 0 0 0 0 0 0 0 0 0 0 0 0 0 0 0 0 0 0 0 0 0 0 0 0 0 0
0 0 0 0 0 0 0 0 0 0 0 0 0 0 0 0 0 0 0 0 0 0 0 0 0 0 0 0 0 0 0 0 0 0 0 0 0 0 0 0 0 0 0 0
0 0 0 0 0 0 0 0 0 0 0 0 0 0 0 0 0 0 0 0 0 0 0 0 0 0 0 0 0 0 0 0 0 0 0 0 0 0 0 0 0 0 0 0
Wind_Speed
6 2 4 7 8 8 10 9 8 7 6 9 7 10 12 11 9 11 13 13 13 13 14 14 14 14 14 14 14 15 15 15 15 16 16 16 17 17 17 17 17 17 18 18
4 2 4 8 9 9 10 9 10 9 9 2 7 10 12 10 8 11 13 13 13 14 14 14 15 14 14 14 14 14 14 14 15 15 16 16 16 16 17 17 17 17 17 18
5 3 7 8 5 9 6 7 6 6 4 5 9 12 12 7 7 11 13 13 14 14 14 14 14 14 15 15 15 14 14 14 14 15 16 16 16 16 16 16 16 16 16 17
5 6 7 3 2 4 6 5 6 6 4 5 8 9 4 3 7 11 12 12 12 12 13 13 13 13 14 14 14 14 14 14 15 15 15 16 16 15 15 14 14 14 16 17
2 5 10 3 5 5 5 5 5 5 3 5 7 8 3 2 6 9 10 11 11 12 13 13 13 13 14 15 14 14 15 15 15 15 15 16 16 15 14 14 14 14 14 16
2 5 7 2 6 5 3 4 7 4 3 5 6 7 5 3 6 7 9 9 10 11 12 12 12 13 14 15 15 15 16 16 16 16 16 16 16 15 14 14 14 14 14 14
6 7 9 6 8 7 4 2 8 4 2 2 3 3 4 3 6 7 9 10 11 12 11 11 12 13 14 15 16 16 17 17 16 16 15 15 14 13 13 13 13 13 14 13
5 7 7 11 10 7 1 7 5 3 2 1 1 2 2 4 6 8 9 10 11 11 12 11 12 13 15 15 16 16 17 16 16 16 14 12 13 13 12 12 12 12 12 12
9 4 4 10 5 4 7 6 5 4 4 4 3 2 3 4 6 7 9 10 10 11 13 12 12 13 15 16 16 16 16 16 15 15 14 13 13 12 11 10 9 9 9 9
8 7 6 8 6 7 6 6 7 7 7 6 5 4 2 4 6 7 8 9 10 11 12 13 14 13 14 15 15 16 16 16 14 14 14 13 11 10 10 10 10 10 7 7
8 3 5 9 10 9 8 9 10 9 7 6 6 4 1 3 5 6 7 8 9 11 12 14 14 14 14 15 15 16 16 15 14 13 13 12 11 10 11 10 11 11 8 7
6 8 8 9 13 12 12 10 10 10 8 6 5 4 1 3 4 6 7 9 10 11 12 13 14 14 14 15 15 16 14 14 12 12 11 11 11 11 13 14 16 15 13 11
4 6 6 11 12 10 10 11 10 9 8 8 5 3 1 3 4 6 7 9 10 11 12 12 13 14 15 15 15 15 15 14 12 12 12 12 11 11 10 11 13 12 12 12
8 10 8 9 9 10 11 12 10 9 8 7 5 3 1 3 4 5 7 8 10 10 10 11 12 13 15 15 15 15 14 14 14 11 11 11 11 11 9 9 8 7 8 10
9 4 9 11 13 12 12 11 11 9 8 6 4 3 2 3 4 6 7 8 9 8 9 11 12 14 15 15 15 14 12 11 12 11 11 11 11 10 9 9 8 6 5 5
11 10 13 14 14 13 12 11 10 10 8 7 5 4 3 4 5 6 6 7 7 8 9 10 11 14 14 14 14 11 10 16 16 12 10 10 10 10 10 9 8 7 6 5
16 13 12 13 13 13 12 10 10 10 9 7 6 4 3 3 3 4 6 6 6 7 8 9 11 13 13 13 12 9 9 11 16 12 10 10 10 10 10 9 8 7 6 7
16 15 15 16 16 14 12 11 10 10 8 7 6 4 3 1 4 6 7 7 7 5 7 10 12 13 12 12 10 8 8 9 10 10 10 10 10 9 9 9 9 8 6 6
12 12 12 12 13 14 13 12 11 9 8 8 7 5 2 1 4 5 6 6 6 7 9 11 16 12 11 13 13 7 8 9 9 9 9 12 10 8 8 8 8 8 7 6
11 12 12 12 12 11 12 11 11 10 8 7 6 5 3 1 3 5 5 4 3 5 9 11 11 10 10 11 12 7 8 9 10 9 9 9 9 9 8 8 8 8 7 6
14 13 13 13 12 11 12 13 12 11 9 8 6 5 3 2 3 4 4 3 3 7 9 10 8 8 9 10 10 7 8 9 9 9 9 9 9 9 8 8 8 7 7 7
14 14 14 13 13 12 11 11 10 11 9 8 6 5 3 2 2 3 3 3 6 10 7 5 7 11 13 11 6 7 8 9 9 9 9 10 9 9 9 9 8 7 7 7
13 13 14 13 13 12 11 10 10 10 9 9 8 6 4 2 1 2 3 3 5 9 6 5 10 15 15 7 6 7 8 9 10 10 10 11 10 10 9 10 8 8 8 8
13 13 12 12 12 13 12 10 9 7 7 6 6 5 4 2 2 2 3 7 8 9 5 7 12 13 11 6 6 7 8 9 9 10 11 11 11 11 11 10 10 9 9 10
13 13 13 14 13 11 11 11 9 8 7 6 6 6 5 3 3 2 3 4 7 7 4 6 10 11 7 6 6 7 7 8 10 10 10 11 12 12 12 12 12 11 10 10
12 12 11 11 9 9 10 10 9 8 8 7 6 6 5 4 3 3 3 3 5 5 4 4 5 6 5 6 6 7 7 8 9 9 11 11 13 13 13 14 17 13 12 12
11 10 8 8 8 9 9 10 10 9 9 8 7 6 5 4 3 2 2 2 2 3 3 3 3 4 4 5 6 7 7 7 8 9 10 11 11 12 13 15 13 13 13 14
Wind_Direction
278 269 261 262 252 226 228 248 269 294 296 324 347 341 340 348 349 346 345 344 344 342 340 338 336 335 335 333 334 334 334 335 335 334 333 334 332 335 337 337 337 336 335 334
265 213 275 266 250 237 238 243 252 274 291 21 333 330 338 351 350 342 342 342 342 339 337 335 334 331 330 328 331 329 330 329 329 330 331 331 330 335 336 336 336 337 335 334
279 309 295 269 230 206 209 215 234 267 312 336 324 336 342 352 346 340 339 339 338 335 332 330 329 327 324 325 324 324 325 324 324 326 327 327 328 333 335 334 334 334 333 334
299 315 283 74 71 199 214 226 224 251 281 310 325 332 7 19 344 339 339 334 331 328 326 324 324 322 321 321 319 321 320 320 322 323 321 322 326 328 332 333 329 330 332 335
279 284 273 153 173 179 213 242 197 212 268 318 332 298 171 79 347 338 334 328 325 323 321 321 323 324 322 320 323 322 321 321 321 320 318 320 320 324 331 330 327 329 331 335
205 265 275 100 143 151 203 240 168 203 287 322 326 318 30 43 344 338 332 328 325 322 322 323 326 325 321 323 325 326 324 322 320 321 322 320 319 324 327 326 329 330 331 336
220 246 273 122 142 160 225 43 146 197 274 318 323 345 23 2 348 340 332 330 328 325 325 327 327 325 324 325 328 326 322 321 323 325 324 320 321 323 322 324 327 330 332 338
198 231 260 142 157 198 105 115 155 167 139 125 80 81 27 3 347 338 332 333 331 327 326 329 330 330 326 328 328 325 323 325 327 327 325 323 324 325 324 325 326 330 332 339
208 232 78 168 174 140 133 148 150 141 129 128 133 99 31 352 336 331 330 330 330 326 325 330 336 335 329 329 329 327 326 328 328 327 327 328 330 330 329 327 323 322 326 336
253 249 198 183 157 144 141 129 121 122 127 131 129 107 36 338 330 330 330 330 329 327 329 333 337 336 333 331 330 328 329 329 329 328 330 333 333 333 331 326 322 320 330 340
245 226 168 184 176 153 127 123 122 119 122 127 128 121 79 316 323 327 326 328 328 330 329 331 333 334 336 335 334 332 331 332 331 332 336 337 340 339 338 339 343 351 354 344
220 184 174 173 165 151 144 143 139 135 131 122 122 133 195 302 317 322 326 327 328 330 330 330 332 334 337 339 337 334 335 337 336 338 342 343 342 343 348 350 354 0 360 356
116 120 113 124 136 143 140 138 142 142 141 138 135 146 261 306 317 324 327 332 330 328 327 327 332 336 340 342 337 338 340 339 337 342 345 344 343 341 340 346 355 5 6 1
137 126 127 142 142 137 130 129 125 121 126 136 142 148 262 297 312 324 329 325 321 321 325 331 334 339 342 340 338 342 344 343 345 345 346 346 346 344 342 343 346 358 6 5
162 138 136 130 125 125 128 133 136 138 144 145 150 173 243 289 313 318 320 321 321 324 334 336 336 339 342 340 340 342 347 347 347 348 351 351 352 350 350 350 351 355 358 5
142 119 127 136 142 145 149 155 159 158 161 163 176 197 240 278 295 306 320 330 326 327 329 331 334 336 338 340 339 342 346 351 355 353 355 356 357 355 355 356 358 1 2 359
146 150 153 156 161 165 170 173 167 160 162 171 181 197 239 277 302 328 336 330 313 304 316 333 334 331 338 341 340 341 342 345 355 357 359 359 360 358 358 0 3 3 2 356
174 167 168 167 166 167 169 165 158 155 162 169 169 192 214 305 341 330 325 322 319 330 351 348 331 336 340 340 342 339 338 344 350 355 357 359 360 357 357 359 1 3 359 356
160 156 156 158 160 160 160 158 155 153 154 160 176 184 191 286 315 315 317 322 333 344 343 331 333 341 338 343 347 337 337 343 347 352 355 355 356 355 354 353 353 353 351 348
147 144 140 141 144 148 151 149 148 151 158 165 173 183 196 248 308 312 308 298 317 313 303 321 336 334 335 343 347 337 337 341 343 345 348 350 350 349 346 344 341 340 340 336
146 142 142 143 145 147 149 151 154 158 163 173 183 187 194 250 290 300 298 324 348 320 323 343 336 330 341 348 343 338 339 340 341 341 342 342 340 339 337 333 329 326 323 320
150 149 149 148 146 147 151 155 157 157 162 175 187 192 207 238 288 294 262 286 318 323 337 338 328 342 355 351 339 338 339 340 340 341 341 337 334 330 326 322 317 312 309 305
154 153 152 154 153 148 149 157 162 164 172 182 189 194 198 220 289 305 316 320 319 327 343 334 337 349 356 351 340 338 339 341 341 342 342 338 335 330 324 318 310 303 298 294
152 151 149 143 140 146 159 168 168 170 176 187 197 202 204 215 231 233 275 308 321 330 339 337 347 354 356 349 342 340 341 339 339 341 341 339 338 337 334 328 319 311 301 295
150 146 146 151 160 168 166 160 162 169 180 195 207 210 214 220 239 279 299 306 318 330 333 338 351 354 354 343 342 340 338 338 342 342 341 340 340 341 343 343 340 332 322 311
154 159 165 172 169 160 159 165 173 178 183 192 201 203 203 206 226 254 278 299 313 328 334 334 340 345 344 342 340 338 336 337 340 340 339 339 339 342 344 346 347 348 344 338
150 150 153 161 167 168 168 173 178 181 186 190 190 190 191 194 204 225 256 287 315 327 332 339 341 340 339 340 338 337 336 337 338 339 339 337 337 339 342 346 348 348 349 349